MST,Max TemperatureF,Mean TemperatureF,Min TemperatureF,Max Dew PointF,MeanDew PointF,Min DewpointF,Max Humidity, Mean Humidity, Min Humidity, Max Sea Level PressureIn, Mean Sea Level PressureIn, Min Sea Level PressureIn, Max VisibilityMiles, Mean VisibilityMiles, Min VisibilityMiles, Max Wind SpeedMPH, Mean Wind SpeedMPH, Max Gust SpeedMPH,PrecipitationIn, CloudCover, Events, WindDirDegrees
2013-1-1,26,16,6,17,9,3,92,75,57,30.33,30.28,30.23,10,10,3,23,9,24,T,2,Snow,273
2013-1-2,32,22,12,23,16,4,88,73,58,30.40,30.26,30.11,10,9,2,25,15,30,0.01,4,Snow,304
2013-1-3,30,19,8,16,9,2,84,65,46,30.50,30.39,30.29,10,10,8,15,9,18,T,3,Snow,272
2013-1-4,41,26,11,18,8,1,71,49,27,30.35,30.22,30.07,10,10,10,15,9,17,0.00,0,,235
2013-1-5,41,27,12,25,15,4,77,63,48,30.40,30.26,30.04,10,10,10,22,13,28,0.00,0,,291
2013-1-6,46,30,15,24,18,9,74,59,30,30.38,30.21,29.96,10,10,10,25,14,31,0.00,0,,210
2013-1-7,48,34,20,23,19,16,84,57,29,30.04,29.98,29.86,10,10,10,15,7,18,0.00,0,,300
2013-1-8,50,34,17,28,21,12,85,62,39,30.30,30.03,29.81,10,10,10,17,8,23,0.00,0,,294
2013-1-9,55,38,20,26,21,15,88,56,24,30.46,30.33,30.20,10,10,10,21,12,26,0.00,0,,208
2013-1-10,42,37,31,37,33,24,100,83,66,30.17,29.78,29.50,10,6,0,29,14,33,T,6,Fog,184
2013-1-11,56,35,14,35,21,1,100,57,13,29.92,29.53,29.26,10,7,0,38,19,49,T,6,Fog-Snow,287
2013-1-12,22,13,3,6,3,-2,83,65,47,30.25,30.14,29.94,10,10,10,24,12,29,0.00,1,,336
2013-1-13,23,11,-2,5,-1,-7,87,67,47,30.40,30.32,30.24,10,10,10,15,7,22,0.00,0,,308
2013-1-14,26,12,-3,14,8,-8,86,68,50,30.46,30.32,30.12,10,9,2,20,9,24,0.01,7,Snow,181
2013-1-15,31,22,13,22,11,-3,88,57,25,30.32,30.21,30.12,10,10,7,18,9,22,T,6,Snow,282
2013-1-16,52,39,25,23,21,19,75,53,30,30.39,30.22,30.11,10,10,10,28,14,33,0.00,2,,313
2013-1-17,53,38,23,21,17,13,81,51,20,30.55,30.42,30.22,10,10,10,20,10,29,0.00,0,,249
2013-1-18,62,45,28,20,13,6,63,37,11,30.19,30.09,30.00,10,10,10,26,12,32,0.00,0,,274
2013-1-19,57,39,20,16,13,10,68,43,17,30.30,30.19,30.01,10,10,10,22,10,28,0.00,0,,291
2013-1-20,47,29,11,21,16,8,88,60,31,30.48,30.31,30.17,10,10,10,30,10,38,0.00,0,,31
2013-1-21,47,28,9,23,16,7,92,63,34,30.38,30.25,30.11,10,10,10,22,9,28,0.00,0,,169
2013-1-22,59,34,9,21,13,7,92,53,14,30.21,30.16,30.12,10,10,10,15,7,18,0.00,0,,270
2013-1-23,59,39,19,20,13,1,91,51,10,30.33,30.20,30.08,10,10,10,15,9,18,0.00,0,,99
2013-1-24,46,31,15,22,17,12,92,66,39,30.31,30.19,30.02,10,10,9,23,11,28,0.00,3,,182
2013-1-25,55,38,20,24,20,16,84,56,27,30.28,30.20,30.11,10,10,10,16,9,20,0.00,0,,216
2013-1-26,60,42,23,34,25,18,85,56,27,30.09,29.95,29.75,10,10,5,21,11,25,0.04,3,Rain,172
2013-1-27,56,43,30,41,33,28,100,78,55,29.82,29.72,29.66,10,5,0,15,8,20,0.00,3,Fog,314
2013-1-28,69,49,29,40,32,22,100,59,18,29.76,29.64,29.44,10,8,1,28,14,35,T,4,Rain,258
2013-1-29,32,26,20,28,24,15,92,81,69,29.92,29.73,29.64,10,8,1,25,15,31,0.01,6,Snow,341
2013-1-30,39,25,10,21,13,6,84,57,29,30.06,29.97,29.85,10,10,8,29,15,36,T,4,Snow,297
2013-1-31,38,25,11,22,16,7,88,64,40,30.34,30.17,29.94,10,10,9,26,10,33,T,4,Snow,344